User: anonymous
Location: Potawatomi Wildlife Park
(41.2308°N, 86.1050°W)
Time: 10:13:04
(UTC-04:00)
Language:

SL-16 R/B - Orbit

View from above orbital plane
View from above orbital plane
View from above satellite
View from above satellite

Ground track
Ground track

The orbit data is extracted from the following two-line orbital elements,

1 27006U 01056F   14241.33160242  .00000044  00000-0  96200-4 0  2150
2 27006 099.1736 045.8962 0015551 101.3665 319.1238 13.70917283636345
Epoch (UTC): 29 August 2014 07:57:30
Eccentricity: 0.0015551
inclination: 99.1736°
perigee height: 985 km
apogee height: 1008 km
right ascension of ascending node: 45.8962°
argument of perigee: 101.3665°
revolutions per day: 13.70917283
mean anomaly at epoch: 319.1238°
orbit number at epoch: 63634

The dashed part of the orbit path shows where the satellite is in the earth's shadow,  

DLR